cover

 

Get it on iTunes StoreListen on Apple Music

Space Bird Records

#Trackname / Key / BPM / Publish dateArtists, Remixers / Label
1 123 bpm, 6A / G minor, 2018-09-03, Tech House,  2  11
2 123 bpm, 8A / A minor, 2018-09-03, Tech House,  3  11
3 123 bpm, 8A / A minor, 2018-09-03, Tech House,  2  11
4 124 bpm, 12A / Db minor, 2018-09-03, Progressive House,  0  11
5 124 bpm, 7A / D minor, 2018-09-03, Tech House,  1  11
6 124 bpm, 11B / A major, 2018-09-03, Minimal,  2  11
7 123 bpm, 5A / C minor, 2018-09-03, Deep House,  0  11
8 123 bpm, 9A / E minor, 2018-09-03, Deep House,  1  11
9 126 bpm, 7A / D minor, 2018-09-03, Minimal,  0  11
10 124 bpm, 10B / D major, 2018-09-03, Tech House,  0  11
11 125 bpm, 7A / D minor, 2018-09-03, Tech House,  1  11
12 123 bpm, 7A / D minor, 2018-09-01, Progressive House,  9  1
13 122 bpm, 8A / A minor, 2018-08-25, Melodic House & Techno,  9  1
14 123 bpm, 10B / D major, 2018-08-09, Tech House,  26  1
15 123 bpm, 8A / A minor, 2018-08-06, Tech House,  31  1
16 123 bpm, 6A / G minor, 2018-08-01, Tech House,  31  1
17 124 bpm, 8B / C major, 2018-07-30, Deep House,  12  2
18 125 bpm, 5B / Eb major, 2018-07-30, Deep House,  10  2
19 124 bpm, 7B / F major, 2018-07-21, Deep House,  20  2
20 123 bpm, 9A / E minor, 2018-07-21, Minimal,  15  2
21 124 bpm, 12A / Db minor, 2018-07-19, Progressive House,  33  2
1
22 123 bpm, 6A / G minor, 2018-07-19, Minimal,  19  2
23 123 bpm, 7A / D minor, 2018-07-16, Minimal,  25  2
24 124 bpm, 7A / D minor, 2018-07-16, Tech House,  27  2
25 123 bpm, 5A / C minor, 2018-07-02, Deep House,  17  2
26 124 bpm, 6B / Bb major, 2018-07-02, Tech House,  24  2
27 120 bpm, 11A / F# minor, 2018-06-25, Deep House,  26  2
28 120 bpm, 11A / F# minor, 2018-06-25, Deep House,  14  2
29 123 bpm, 6A / G minor, 2018-06-23, Minimal,  24  1
30 125 bpm, 5B / Eb major, 2018-06-21, Techno,  11  2
31 125 bpm, 6B / Bb major, 2018-06-21, Deep House,  11  2
32 123 bpm, 8A / A minor, 2018-06-19, Minimal,  12  6
33 123 bpm, 5A / C minor, 2018-06-19, Melodic House & Techno,  7  6
34 124 bpm, 6A / G minor, 2018-06-19, Tech House,  4  6
35 126 bpm, 6B / Bb major, 2018-06-19, Tech House,  5  6
36 123 bpm, 7A / D minor, 2018-06-19, Minimal,  13  6
37 123 bpm, 9A / E minor, 2018-06-19, Minimal,  6  6
38 123 bpm, 7A / D minor, 2018-06-18, Minimal,  26  3
39 123 bpm, 8A / A minor, 2018-06-18, Tech House,  11  3
40 122 bpm, 6B / Bb major, 2018-06-18, Tech House,  14  3
41 124 bpm, 11B / A major, 2018-06-18, Minimal,  38  2
42 123 bpm, 5A / C minor, 2018-06-18, Deep House,  21  2
43 123 bpm, 5A / C minor, 2018-06-14, Deep House,  20  2
44 124 bpm, 8A / A minor, 2018-06-14, Minimal,  17  2
45 123 bpm, 8A / A minor, 2018-06-11, Tech House,  46  1
46 126 bpm, 4A / F minor, 2018-06-07, Deep House,  25  2
47 125 bpm, 6A / G minor, 2018-06-07, Minimal,  4  2
48 126 bpm, 7A / D minor, 2018-06-04, Tech House,  27  1
49 122 bpm, 8A / A minor, 2018-05-25, Indie Dance / Nu Disco,  3  10
50 122 bpm, 2A / Eb minor, 2018-05-25, Tech House,  5  10
51 124 bpm, 7A / D minor, 2018-05-25, Tech House,  8  10
52 123 bpm, 5A / C minor, 2018-05-25, Tech House,  4  10
53 126 bpm, 7A / D minor, 2018-05-25, Minimal,  10  10
54 125 bpm, 6B / Bb major, 2018-05-25, Progressive House,  8  10
55 124 bpm, 6A / G minor, 2018-05-25, Techno,  2  10
56 122 bpm, 11B / A major, 2018-05-25, Indie Dance / Nu Disco,  6  10
57 120 bpm, 12B / E major, 2018-05-25, Minimal,  7  10
58 123 bpm, 7A / D minor, 2018-05-25, Deep House,  1  10
59 123 bpm, 6A / G minor, 2018-05-23, Minimal,  23  2
60 123 bpm, 6A / G minor, 2018-05-23, Tech House,  13  2
61 123 bpm, 9A / E minor, 2018-05-21, Deep House,  31  10
62 127 bpm, 8A / A minor, 2018-05-21, Techno,  3  10
63 122 bpm, 7B / F major, 2018-05-21, Tech House,  7  10
64 126 bpm, 7A / D minor, 2018-05-21, Minimal,  6  10
65 124 bpm, 10B / D major, 2018-05-21, Tech House,  27  10
66 124 bpm, 6A / G minor, 2018-05-21, Techno,  2  10
67 124 bpm, 5A / C minor, 2018-05-21, Minimal,  5  10
68 124 bpm, 9A / E minor, 2018-05-21, Minimal,  6  10
69 124 bpm, 10B / D major, 2018-05-21, Tech House,  18  10
70 124 bpm, 7A / D minor, 2018-05-21, Deep House,  5  10
71 123 bpm, 8A / A minor, 2018-05-18, Minimal,  20  1
72 123 bpm, 6A / G minor, 2018-05-14, Minimal,  13  1
73 123 bpm, 5A / C minor, 2018-05-07, Melodic House & Techno,  33  1
74 123 bpm, 6B / Bb major, 2018-05-01, Tech House,  25  2
75 124 bpm, 9A / E minor, 2018-05-01, Minimal,  14  2
76 124 bpm, 10B / D major, 2018-04-23, Tech House,  42  1
77 123 bpm, 9B / G major, 2018-04-18, Minimal,  10  2
78 124 bpm, 8A / A minor, 2018-04-18, Tech House,  14  2
79 124 bpm, 6A / G minor, 2018-04-16, Tech House,  13  1
80 127 bpm, 8A / A minor, 2018-04-11, Techno,  16  3
81 125 bpm, 7B / F major, 2018-04-11, Tech House,  4  3
82 126 bpm, 6B / Bb major, 2018-04-11, Tech House,  5  3
83 124 bpm, 7A / D minor, 2018-04-06, Deep House,  17  1
84 123 bpm, 9A / E minor, 2018-04-02, Deep House,  40  1
85 126 bpm, 11B / A major, 2018-03-26, Tech House,  10  7
86 126 bpm, 11B / A major, 2018-03-26, Tech House,  1  7
87 127 bpm, 7B / F major, 2018-03-26, Tech House,  3  7
88 126 bpm, 7A / D minor, 2018-03-26, Tech House,  5  7
89 126 bpm, 7A / D minor, 2018-03-26, Minimal,  14  7
90 126 bpm, 2A / Eb minor, 2018-03-26, Tech House,  1  7
91 126 bpm, 3A / Bb minor, 2018-03-26, Minimal,  1  7
92 124 bpm, 6A / G minor, 2018-03-21, Techno,  16  1
93 123 bpm, 7A / D minor, 2018-03-19, Minimal,  22  1
1
94 124 bpm, 10B / D major, 2018-03-12, Tech House,  39  1
1
95 122 bpm, 11B / A major, 2018-03-08, Indie Dance / Nu Disco,  18  1
96 122 bpm, 2A / Eb minor, 2018-03-05, Tech House,  7  8
97 122 bpm, 7B / F major, 2018-03-05, Tech House,  3  8
98 120 bpm, 12B / E major, 2018-03-05, Minimal,  6  8
1
99 124 bpm, 5A / C minor, 2018-03-05, Progressive House,  3  8
100 123 bpm, 9A / E minor, 2018-03-05, Minimal,  0  8
×

Sign in

Sign in to access your personalized pages, follow artists and labels you love, and create playlists fromyour favorite tracks.

Please wait...